Location: George Washington National Forest Helicopter Landing Site
(38.6463°N, 79.0851°W)
Time: 10:16:50
(UTC-04:00)

Tiros 1 - Pass Details

Date: 02 September 2019
Orbit: 630 x 664 km, 48.4° (Epoch: 20 September)

Event Time Altitude Azimuth Distance (km) Brightness Sun altitude
Rises 22:30:19 0° 274° (W) 2,915 11.2 -29.8°
Reaches altitude 10° 22:32:54 10° 286° (WNW) 2,006 10.4 -30.2°
Maximum altitude 22:36:56 29° 346° (NNW) 1,161 8.8 -30.8°
Enters shadow 22:37:11 29° 353° (N) 1,166 8.8 -30.8°
